Regional Weather Roundup
Issued by NWS

Home | Current Version | Previous Version | Graphics & Text | Print | Product List | Glossary On
Versions: 1 2 3 4 5 6 7 8 9 10 11 12 13 14 15 16 17 18 19 20 21 22 23 24 25 26 27 28 29 30 31 32 33 34 35 36 37 38 39 40 41 42 43 44 45 46 47 48 49 50
000
ASUS43 KLOT 271212
RWRIL

ILLINOIS REGIONAL WEATHER ROUNDUP
NATIONAL WEATHER SERVICE CHICAGO/ROMEOVILLE IL
700 AM CDT MON APR 27 2015

NOTE: "FAIR" INDICATES FEW OR NO CLOUDS BELOW 12,000 FEET WITH NO
SIGNIFICANT WEATHER AND/OR OBSTRUCTIONS TO VISIBILITY.

* THESE STATIONS ARE NOT UNDER NWS QUALITY CONTROL. THEY ALSO MAY NOT
  REPORT WEATHER SUCH AS PRECIPITATION OR FOG.

ILZ001-002-007-009-015-016-024-271300-
NORTHWEST ILLINOIS

CITY           SKY/WX    TMP DP  RH WIND       PRES   REMARKS
MOLINE         CLEAR     38  31  76 NE3       30.13R
6HR MIN TEMP:  32; 6HR MAX TEMP:  39;

STERLING*      CLEAR     37  30  75 NW3       30.14R
SAVANNA*       CLEAR     36  32  84 CALM      30.15R
$$

ILZ003-004-008-010-011-017-018-271300-
NORTH CENTRAL ILLINOIS

CITY           SKY/WX    TMP DP  RH WIND       PRES   REMARKS
ROCKFORD       SUNNY     38  30  73 NW3       30.14R
6HR MIN TEMP:  35; 6HR MAX TEMP:  42;

FREEPORT*      CLEAR     32  28  87 CALM      30.15R
ROCHELLE*      SUNNY     36  31  83 N5        30.13R WCI  32
DE KALB*       SUNNY     34  30  85 NW8       30.12R WCI  27
PERU*          SUNNY     36  32  85 NW6       30.13R WCI  31
$$

ILZ005-006-012>014-019>023-271300-
NORTHEAST ILLINOIS

CITY           SKY/WX    TMP DP  RH WIND       PRES   REMARKS
CHICAGO-OHARE  SUNNY     41  30  65 N8        30.08R
6HR MIN TEMP:  38; 6HR MAX TEMP:  42;

CHICAGO-MIDWAY SUNNY     45  32  60 N12       30.08R
6HR MIN TEMP:  43; 6HR MAX TEMP:  46;

AURORA         SUNNY     37  31  78 NW6       30.10R WCI  32
6HR MIN TEMP:  33; 6HR MAX TEMP:  40;

LANSING*       SUNNY     42  32  67 N9        30.08R
JOLIET*        SUNNY     41  33  73 NW6       30.10R
WAUKEGAN       SUNNY     40  31  70 NW5       30.07R
6HR MIN TEMP:  36; 6HR MAX TEMP:  41;

DUPAGE AIRPORT SUNNY     40  31  70 N8        30.08R
6HR MIN TEMP:  33; 6HR MAX TEMP:  40;

KANKAKEE*      SUNNY     38  34  84 W7        30.10R WCI  33
WHEELING       SUNNY     41  30  65 NW6       30.10R
6HR MIN TEMP:  37; 6HR MAX TEMP:  41;

MORRIS*        SUNNY     37  33  83 NW6       30.07R WCI  33
ROMEOVILLE*    SUNNY     40  32  74 NW6       30.09R
NORTHERLY ISL    N/A     43  33  68 NW15        N/A
$$

LMZ740>746-271300-
SOUTHERN LAKE MICHIGAN

STATION/POSITION SKY/WX   TEMP    WIND        PRES    VSBY  WAVE
                          AIR SEA DIR/SP/G                  HT/PER
                          (F)     (DEG/KT/KT) (MB)    (MI)  (FT/S)
HARRISON CRIB              41     350/ 19/ 22   N/A
BURNHAM HARBOR             43     340/ 15/ 20   N/A
CALUMET HARBOR             41     340/ 11/ 19   N/A
BURNS HARBOR               41      10/ 19     1016.9R
MICHIGAN CITY              40     360/ 22/ 26   N/A
MICHIGAN CITY 6N           40 45   20/ 17/ 21   N/A           5/ 5
$$

ILZ025>027-034>036-040-047-049-050-058-095>099-271300-
WEST-CENTRAL ILLINOIS

CITY           SKY/WX    TMP DP  RH WIND       PRES   REMARKS
QUINCY         CLEAR     39  33  79 N3        30.10R
GALESBURG*     CLEAR     39  32  75 E5        30.12R
MACOMB*        CLEAR     37  34  87 N6        30.13R WCI  33
JACKSONVILLE*  CLEAR     39  34  82 NE6       30.10R
PITTSFIELD*    CLEAR     37  35  92 N3        30.11R
$$

ILZ028>032-037-038-041>044-048-051>054-059>061-271300-
CENTRAL ILLINOIS

CITY           SKY/WX    TMP DP  RH WIND       PRES   REMARKS
PONTIAC        SUNNY     37  33  84 N6        30.11S WCI  33
BLOOMINGTON    SUNNY     39  32  76 N8        30.11R WCI  33
DECATUR        SUNNY     40  31  70 N10       30.09R
PEORIA         CLEAR     43  31  62 NE3       30.12R
6HR MIN TEMP:  37; 6HR MAX TEMP:  43;

LACON*         CLEAR     37  32  84 CALM      30.13R
LINCOLN*       CLEAR     41  32  69 N8        30.12R
SPRINGFIELD    CLEAR     39  33  79 N8        30.11R WCI  33
6HR MIN TEMP:  34; 6HR MAX TEMP:  40;

TAYLORVILLE    CLEAR     37  32  81 N7        30.10R WCI  32
$$

ILZ033-039-045-046-055>057-062-063-271300-
EAST-CENTRAL ILLINOIS

CITY           SKY/WX    TMP DP  RH WIND       PRES   REMARKS
CHAMPAIGN      SUNNY     41  32  70 N13       30.06R
DANVILLE*      SUNNY     38  32  81 N10       30.03R WCI  31
RANTOUL*       SUNNY     41  33  72 N10G16    30.08R
MATTOON        SUNNY     40  31  70 N9        30.06R
PARIS*         SUNNY     40  33  76 N9        30.06R
$$

ILZ079-100>102-271300-
SOUTHWEST ILLINOIS

CITY           SKY/WX    TMP DP  RH WIND       PRES   REMARKS
ALTON          CLEAR     41  32  70 N6        30.08R
BELLEVILLE     MOCLDY    44  33  65 N7        30.05S
CAHOKIA*       MOCLDY    43  37  79 CALM      30.06S
SPARTA*        CLOUDY    41  34  77 N5        30.05S
$$

ILZ064>066-069>071-074>076-080>082-084>086-088>090-092>094-271300-
SOUTH-CENTRAL ILLINOIS

CITY           SKY/WX    TMP DP  RH WIND       PRES   REMARKS
CARBONDALE     CLOUDY    42  34  73 CALM      30.04R
6HR MIN TEMP:  39; 6HR MAX TEMP:  48;

CAIRO*         CLOUDY    45  35  67 N7        30.02S
EFFINGHAM*     SUNNY     43  28  56 N12       30.08R
MARION         MOCLDY    43  34  70 N6        30.04R
MT. VERNON     MOCLDY    43  28  56 N5        30.04S
CENTRALIA*     MOCLDY    48  34  58 N7        30.05S
SALEM*         PTCLDY    42  34  75 N6        30.05S
METROPOLIS*    CLOUDY    43  37  79 N3        30.01R
$$

ILZ067-068-072-073-078-083-087-091-271300-
SOUTHEAST ILLINOIS

CITY           SKY/WX    TMP DP  RH WIND       PRES   REMARKS
LAWRENCEVILLE  SUNNY     43  31  62 N8        30.05R
FLORA*         SUNNY     41  32  70 N7        30.05R
FAIRFIELD*     PTSUNNY   43  32  65 N9        30.03R
HARRISBURG*    MOCLDY    42  32  67 N9        30.03F
ROBINSON*      SUNNY     40  32  71 N7        30.06R
CARMI*         PTSUNNY   43  31  64 N7        30.03R
$$

ABBREVIATIONS USED IN REMARKS
   TC - TEMPERATURE IN CELSIUS
  WCI - WIND CHILL INDEX
   HX - HEAT INDEX
  VSB - VISIBILITY
$$



USA.gov is the U.S. government's official web portal to all federal, state and local government web resources and services.